Time,TemperatureF,DewpointF,PressureIn,WindDirection,WindDirectionDegrees,WindSpeedMPH,WindSpeedGustMPH,Humidity,HourlyPrecipIn,Conditions,Clouds,dailyrainin,SoftwareType,DateUTC
2013-09-04 00:00:00,61.2,56.7,29.91,SW,227,0.0,0.0,85,0.00,,CLR,0.00,VWS V14.01,2013-09-04 05:00:00,
2013-09-04 00:05:00,61.0,56.8,29.91,SW,225,0.0,0.0,86,0.00,,---,0.00,VWS V14.01,2013-09-04 05:05:00,
2013-09-04 00:10:00,60.7,56.5,29.91,SW,227,0.0,0.0,86,0.00,,CLR,0.00,VWS V14.01,2013-09-04 05:10:00,
2013-09-04 00:15:00,60.5,56.3,29.92,SW,227,0.0,0.0,86,0.00,,CLR,0.00,VWS V14.01,2013-09-04 05:15:00,
2013-09-04 00:20:00,60.2,56.0,29.92,SW,227,0.0,0.0,86,0.00,,CLR,0.00,VWS V14.01,2013-09-04 05:20:00,
2013-09-04 00:25:00,60.2,56.0,29.92,SW,227,0.0,0.0,86,0.00,,CLR,0.00,VWS V14.01,2013-09-04 05:25:00,
2013-09-04 00:30:00,60.1,56.2,29.92,SW,227,0.0,0.0,87,0.00,,CLR,0.00,VWS V14.01,2013-09-04 05:30:00,
2013-09-04 00:35:00,59.9,56.0,29.92,SW,227,0.0,0.0,87,0.00,,CLR,0.00,VWS V14.01,2013-09-04 05:35:00,
2013-09-04 00:40:00,59.8,55.9,29.92,SW,227,0.0,0.0,87,0.00,,CLR,0.00,VWS V14.01,2013-09-04 05:40:00,
2013-09-04 00:45:00,59.8,55.9,29.92,SW,225,0.0,0.0,87,0.00,,---,0.00,VWS V14.01,2013-09-04 05:45:00,
2013-09-04 00:50:00,59.6,55.7,29.92,SW,227,0.0,0.0,87,0.00,,CLR,0.00,VWS V14.01,2013-09-04 05:50:00,
2013-09-04 00:55:00,59.6,56.0,29.92,SW,225,0.0,0.0,88,0.00,,---,0.00,VWS V14.01,2013-09-04 05:55:00,
2013-09-04 01:00:00,59.5,56.0,29.92,SW,227,0.0,0.0,88,0.00,,CLR,0.00,VWS V14.01,2013-09-04 06:00:00,
2013-09-04 01:05:00,59.5,56.0,29.92,SW,227,0.0,0.0,88,0.00,,CLR,0.00,VWS V14.01,2013-09-04 06:05:00,
2013-09-04 01:10:00,59.3,55.8,29.92,SW,227,0.0,0.0,88,0.00,,CLR,0.00,VWS V14.01,2013-09-04 06:10:00,
2013-09-04 01:15:00,59.3,55.8,29.93,SW,227,0.0,0.0,88,0.00,,CLR,0.00,VWS V14.01,2013-09-04 06:15:00,
2013-09-04 01:20:00,59.2,55.7,29.93,SW,227,0.0,0.0,88,0.00,,CLR,0.00,VWS V14.01,2013-09-04 06:20:00,
2013-09-04 01:25:00,59.2,55.7,29.93,SW,227,0.0,0.0,88,0.00,,CLR,0.00,VWS V14.01,2013-09-04 06:25:00,
2013-09-04 01:30:00,59.0,55.5,29.93,SW,227,0.0,0.0,88,0.00,,CLR,0.00,VWS V14.01,2013-09-04 06:30:00,
2013-09-04 01:35:00,59.0,55.8,29.93,SW,227,0.0,0.0,89,0.00,,CLR,0.00,VWS V14.01,2013-09-04 06:35:00,
2013-09-04 01:40:00,59.0,55.8,29.93,SW,227,0.0,0.0,89,0.00,,CLR,0.00,VWS V14.01,2013-09-04 06:40:00,
2013-09-04 01:45:00,59.0,55.8,29.93,SW,227,0.0,0.0,89,0.00,,CLR,0.00,VWS V14.01,2013-09-04 06:45:00,
2013-09-04 01:50:00,59.0,55.8,29.93,SW,227,0.0,0.0,89,0.00,,CLR,0.00,VWS V14.01,2013-09-04 06:50:00,
2013-09-04 01:55:00,59.0,55.8,29.93,SW,227,0.0,0.0,89,0.00,,CLR,0.00,VWS V14.01,2013-09-04 06:55:00,
2013-09-04 02:00:00,58.9,55.7,29.92,SW,227,0.0,0.0,89,0.00,,CLR,0.00,VWS V14.01,2013-09-04 07:00:00,
2013-09-04 02:05:00,58.9,55.7,29.92,SW,225,0.0,0.0,89,0.00,,---,0.00,VWS V14.01,2013-09-04 07:05:00,
2013-09-04 02:10:00,58.7,55.5,29.92,SW,227,0.0,0.0,89,0.00,,CLR,0.00,VWS V14.01,2013-09-04 07:10:00,
2013-09-04 02:15:00,58.6,55.4,29.93,SW,227,0.0,0.0,89,0.00,,CLR,0.00,VWS V14.01,2013-09-04 07:15:00,
2013-09-04 02:20:00,58.6,55.4,29.93,SW,227,0.0,0.0,89,0.00,,CLR,0.00,VWS V14.01,2013-09-04 07:20:00,
2013-09-04 02:25:00,58.4,55.5,29.93,SW,227,0.0,0.0,90,0.00,,CLR,0.00,VWS V14.01,2013-09-04 07:25:00,
2013-09-04 02:30:00,58.6,55.7,29.93,SW,227,0.0,0.0,90,0.00,,CLR,0.00,VWS V14.01,2013-09-04 07:30:00,
2013-09-04 02:35:00,58.6,55.7,29.93,SW,225,0.0,0.0,90,0.00,,---,0.00,VWS V14.01,2013-09-04 07:35:00,
2013-09-04 02:40:00,58.6,55.7,29.93,SW,227,0.0,0.0,90,0.00,,CLR,0.00,VWS V14.01,2013-09-04 07:40:00,
2013-09-04 02:45:00,58.4,55.5,29.93,SW,227,0.0,0.0,90,0.00,,CLR,0.00,VWS V14.01,2013-09-04 07:45:00,
2013-09-04 02:50:00,58.4,55.5,29.93,SW,227,0.0,0.0,90,0.00,,CLR,0.00,VWS V14.01,2013-09-04 07:50:00,
2013-09-04 02:55:00,58.3,55.4,29.93,SW,227,0.0,0.0,90,0.00,,CLR,0.00,VWS V14.01,2013-09-04 07:55:00,
2013-09-04 03:00:00,58.3,55.4,29.93,SW,225,0.0,0.0,90,0.00,,---,0.00,VWS V14.01,2013-09-04 08:00:00,
2013-09-04 03:05:00,58.1,55.2,29.93,SW,227,0.0,0.0,90,0.00,,CLR,0.00,VWS V14.01,2013-09-04 08:05:00,
2013-09-04 03:10:00,58.0,55.1,29.93,SW,225,0.0,0.0,90,0.00,,---,0.00,VWS V14.01,2013-09-04 08:10:00,
2013-09-04 03:15:00,58.0,55.1,29.93,SW,227,0.0,0.0,90,0.00,,CLR,0.00,VWS V14.01,2013-09-04 08:15:00,
2013-09-04 03:20:00,58.0,55.1,29.93,SW,225,0.0,0.0,90,0.00,,---,0.00,VWS V14.01,2013-09-04 08:20:00,
2013-09-04 03:25:00,58.0,55.1,29.93,SW,227,0.0,0.0,90,0.00,,CLR,0.00,VWS V14.01,2013-09-04 08:25:00,
2013-09-04 03:30:00,57.8,54.9,29.93,SW,227,0.0,0.0,90,0.00,,CLR,0.00,VWS V14.01,2013-09-04 08:30:00,
2013-09-04 03:35:00,57.8,54.9,29.93,SW,227,0.0,0.0,90,0.00,,CLR,0.00,VWS V14.01,2013-09-04 08:35:00,
2013-09-04 03:40:00,57.8,54.9,29.93,SW,227,0.0,0.0,90,0.00,,CLR,0.00,VWS V14.01,2013-09-04 08:40:00,
2013-09-04 03:45:00,57.8,54.9,29.93,SW,227,0.0,0.0,90,0.00,,CLR,0.00,VWS V14.01,2013-09-04 08:45:00,
2013-09-04 03:50:00,57.8,54.9,29.93,SW,225,0.0,0.0,90,0.00,,---,0.00,VWS V14.01,2013-09-04 08:50:00,
2013-09-04 03:55:00,57.6,54.7,29.93,SW,227,0.0,0.0,90,0.00,,CLR,0.00,VWS V14.01,2013-09-04 08:55:00,
2013-09-04 04:00:00,57.6,54.7,29.93,SW,225,0.0,0.0,90,0.00,,---,0.00,VWS V14.01,2013-09-04 09:00:00,
2013-09-04 04:05:00,57.5,54.9,29.93,SW,227,0.0,0.0,91,0.00,,CLR,0.00,VWS V14.01,2013-09-04 09:05:00,
2013-09-04 04:10:00,57.5,54.9,29.93,SW,227,0.0,0.0,91,0.00,,CLR,0.00,VWS V14.01,2013-09-04 09:10:00,
2013-09-04 04:15:00,57.5,54.9,29.93,SW,227,0.0,0.0,91,0.00,,CLR,0.00,VWS V14.01,2013-09-04 09:15:00,
2013-09-04 04:20:00,57.3,54.7,29.93,SW,227,0.0,0.0,91,0.00,,CLR,0.00,VWS V14.01,2013-09-04 09:20:00,
2013-09-04 04:25:00,57.3,54.7,29.93,SW,225,0.0,0.0,91,0.00,,---,0.00,VWS V14.01,2013-09-04 09:25:00,
2013-09-04 04:30:00,57.2,54.6,29.94,SW,227,0.0,0.0,91,0.00,,CLR,0.00,VWS V14.01,2013-09-04 09:30:00,
2013-09-04 04:35:00,57.2,54.6,29.94,SW,227,0.0,0.0,91,0.00,,CLR,0.00,VWS V14.01,2013-09-04 09:35:00,
2013-09-04 04:40:00,57.2,54.6,29.94,SW,227,0.0,0.0,91,0.00,,CLR,0.00,VWS V14.01,2013-09-04 09:40:00,
2013-09-04 04:45:00,57.0,54.4,29.95,SW,225,0.0,0.0,91,0.00,,---,0.00,VWS V14.01,2013-09-04 09:45:00,
2013-09-04 04:50:00,57.0,54.4,29.95,SW,227,0.0,0.0,91,0.00,,CLR,0.00,VWS V14.01,2013-09-04 09:50:00,
2013-09-04 04:55:00,57.0,54.4,29.95,SW,227,0.0,0.0,91,0.00,,CLR,0.00,VWS V14.01,2013-09-04 09:55:00,
2013-09-04 05:00:00,57.0,54.4,29.95,SW,227,0.0,0.0,91,0.00,,CLR,0.00,VWS V14.01,2013-09-04 10:00:00,
2013-09-04 05:05:00,57.2,54.6,29.95,SW,227,0.0,0.0,91,0.00,,CLR,0.00,VWS V14.01,2013-09-04 10:05:00,
2013-09-04 05:10:00,57.2,54.6,29.95,SW,225,0.0,0.0,91,0.00,,---,0.00,VWS V14.01,2013-09-04 10:10:00,
2013-09-04 05:15:00,57.0,54.4,29.95,SW,227,0.0,0.0,91,0.00,,CLR,0.00,VWS V14.01,2013-09-04 10:15:00,
2013-09-04 05:20:00,57.0,54.4,29.95,SW,225,0.0,0.0,91,0.00,,---,0.00,VWS V14.01,2013-09-04 10:20:00,
2013-09-04 05:25:00,57.0,54.7,29.95,SW,227,0.0,0.0,92,0.00,,CLR,0.00,VWS V14.01,2013-09-04 10:25:00,
2013-09-04 05:30:00,57.0,54.7,29.95,SW,227,0.0,0.0,92,0.00,,CLR,0.00,VWS V14.01,2013-09-04 10:30:00,
2013-09-04 05:35:00,57.0,54.7,29.95,SW,225,0.0,0.0,92,0.00,,---,0.00,VWS V14.01,2013-09-04 10:35:00,
2013-09-04 05:40:00,57.2,54.9,29.95,SW,227,0.0,0.0,92,0.00,,CLR,0.00,VWS V14.01,2013-09-04 10:40:00,
2013-09-04 05:45:00,57.2,54.9,29.95,SW,227,0.0,0.0,92,0.00,,CLR,0.00,VWS V14.01,2013-09-04 10:45:00,
2013-09-04 05:50:00,57.2,54.9,29.95,SW,225,0.0,0.0,92,0.00,,---,0.00,VWS V14.01,2013-09-04 10:50:00,
2013-09-04 05:55:00,57.2,54.9,29.95,SW,227,0.0,0.0,92,0.00,,CLR,0.00,VWS V14.01,2013-09-04 10:55:00,
2013-09-04 06:00:00,57.3,55.0,29.95,SW,227,0.0,0.0,92,0.00,,CLR,0.00,VWS V14.01,2013-09-04 11:00:00,
2013-09-04 06:05:00,57.3,55.0,29.95,SW,227,0.0,0.0,92,0.00,,CLR,0.00,VWS V14.01,2013-09-04 11:05:00,
2013-09-04 06:10:00,57.3,55.0,29.95,SW,225,0.0,0.0,92,0.00,,---,0.00,VWS V14.01,2013-09-04 11:10:00,
2013-09-04 06:15:00,57.3,55.0,29.97,SW,227,0.0,0.0,92,0.00,,CLR,0.00,VWS V14.01,2013-09-04 11:15:00,
2013-09-04 06:20:00,57.6,55.3,29.97,SW,227,0.0,0.0,92,0.00,,CLR,0.00,VWS V14.01,2013-09-04 11:20:00,
2013-09-04 06:25:00,57.8,55.5,29.97,SW,227,0.0,0.0,92,0.00,,CLR,0.00,VWS V14.01,2013-09-04 11:25:00,
2013-09-04 06:30:00,58.0,55.7,29.97,SW,227,0.0,0.0,92,0.00,,CLR,0.00,VWS V14.01,2013-09-04 11:30:00,
2013-09-04 06:35:00,58.0,55.7,29.97,SW,227,0.0,0.0,92,0.00,,CLR,0.00,VWS V14.01,2013-09-04 11:35:00,
2013-09-04 06:40:00,58.0,55.7,29.97,SW,227,0.0,0.0,92,0.00,,CLR,0.00,VWS V14.01,2013-09-04 11:40:00,
2013-09-04 06:45:00,57.8,55.5,29.97,SW,227,0.0,0.0,92,0.00,,CLR,0.00,VWS V14.01,2013-09-04 11:45:00,
2013-09-04 06:50:00,57.8,55.5,29.97,SW,227,0.0,0.0,92,0.00,,CLR,0.00,VWS V14.01,2013-09-04 11:50:00,
2013-09-04 06:55:00,57.6,55.3,29.97,SW,227,0.0,0.0,92,0.00,,CLR,0.00,VWS V14.01,2013-09-04 11:55:00,
2013-09-04 07:00:00,57.6,55.3,29.98,SW,227,0.0,0.0,92,0.00,,CLR,0.00,VWS V14.01,2013-09-04 12:00:00,
2013-09-04 07:05:00,57.6,55.3,29.98,SW,227,0.0,0.0,92,0.00,,CLR,0.00,VWS V14.01,2013-09-04 12:05:00,
2013-09-04 07:10:00,57.6,55.3,29.98,SW,225,0.0,0.0,92,0.00,,---,0.00,VWS V14.01,2013-09-04 12:10:00,
2013-09-04 07:15:00,57.6,55.3,29.99,SW,227,0.0,0.0,92,0.00,,CLR,0.00,VWS V14.01,2013-09-04 12:15:00,
2013-09-04 07:20:00,57.6,55.3,29.99,SW,227,0.0,0.0,92,0.00,,CLR,0.00,VWS V14.01,2013-09-04 12:20:00,
2013-09-04 07:25:00,57.8,55.8,29.99,SW,227,0.0,0.0,93,0.00,,CLR,0.00,VWS V14.01,2013-09-04 12:25:00,
2013-09-04 07:30:00,58.0,56.0,29.99,SW,227,0.0,0.0,93,0.00,,CLR,0.00,VWS V14.01,2013-09-04 12:30:00,
2013-09-04 07:35:00,58.1,56.1,29.99,SW,225,0.0,0.0,93,0.00,,---,0.00,VWS V14.01,2013-09-04 12:35:00,
2013-09-04 07:40:00,58.6,56.6,29.99,SW,227,0.0,0.0,93,0.00,,CLR,0.00,VWS V14.01,2013-09-04 12:40:00,
2013-09-04 07:45:00,59.0,57.0,29.99,SW,227,0.0,0.0,93,0.00,,CLR,0.00,VWS V14.01,2013-09-04 12:45:00,
2013-09-04 07:50:00,59.6,57.6,29.99,SW,225,0.0,0.0,93,0.00,,---,0.00,VWS V14.01,2013-09-04 12:50:00,
2013-09-04 07:55:00,60.2,58.2,29.99,SW,227,0.0,0.0,93,0.00,,CLR,0.00,VWS V14.01,2013-09-04 12:55:00,
2013-09-04 08:00:00,60.7,58.7,29.99,SW,227,0.0,0.0,93,0.00,,CLR,0.00,VWS V14.01,2013-09-04 13:00:00,
2013-09-04 08:05:00,61.2,59.2,29.99,SW,225,0.0,0.0,93,0.00,,---,0.00,VWS V14.01,2013-09-04 13:05:00,
2013-09-04 08:10:00,61.5,59.5,29.99,SW,227,0.0,0.0,93,0.00,,CLR,0.00,VWS V14.01,2013-09-04 13:10:00,
2013-09-04 08:15:00,61.6,59.6,29.99,SW,225,0.0,0.0,93,0.00,,---,0.00,VWS V14.01,2013-09-04 13:15:00,
2013-09-04 08:20:00,62.0,60.0,29.99,SW,227,0.0,0.0,93,0.00,,CLR,0.00,VWS V14.01,2013-09-04 13:20:00,
2013-09-04 08:25:00,62.1,60.1,29.99,SW,227,0.0,0.0,93,0.00,,CLR,0.00,VWS V14.01,2013-09-04 13:25:00,
2013-09-04 08:30:00,62.4,60.3,29.99,SW,227,0.0,0.0,93,0.00,,CLR,0.00,VWS V14.01,2013-09-04 13:30:00,
2013-09-04 08:35:00,62.9,60.8,29.99,SW,225,0.0,0.0,93,0.00,,---,0.00,VWS V14.01,2013-09-04 13:35:00,
2013-09-04 08:40:00,63.2,61.2,29.99,SW,227,0.0,0.0,93,0.00,,CLR,0.00,VWS V14.01,2013-09-04 13:40:00,
2013-09-04 08:45:00,63.7,61.6,29.99,SW,229,0.0,0.0,93,0.00,,CLR,0.00,VWS V14.01,2013-09-04 13:45:00,
2013-09-04 08:50:00,64.2,62.1,29.99,West,269,0.0,0.0,93,0.00,,CLR,0.00,VWS V14.01,2013-09-04 13:50:00,
2013-09-04 08:55:00,64.7,62.6,29.99,West,269,0.0,0.0,93,0.00,,CLR,0.00,VWS V14.01,2013-09-04 13:55:00,
2013-09-04 09:00:00,65.2,62.8,30.00,West,270,0.0,0.0,92,0.00,,CLR,0.00,VWS V14.01,2013-09-04 14:00:00,
2013-09-04 09:05:00,65.5,63.1,30.00,West,271,0.0,0.0,92,0.00,,CLR,0.00,VWS V14.01,2013-09-04 14:05:00,
2013-09-04 09:10:00,65.6,62.9,30.00,West,271,0.0,0.0,91,0.00,,CLR,0.00,VWS V14.01,2013-09-04 14:10:00,
2013-09-04 09:15:00,66.1,63.1,30.00,West,271,0.0,0.0,90,0.00,,CLR,0.00,VWS V14.01,2013-09-04 14:15:00,
2013-09-04 09:20:00,66.4,63.1,30.00,NNW,336,0.0,4.0,89,0.00,,CLR,0.00,VWS V14.01,2013-09-04 14:20:00,
2013-09-04 09:25:00,66.9,63.2,30.00,NNW,337,0.0,3.0,88,0.00,,CLR,0.00,VWS V14.01,2013-09-04 14:25:00,
2013-09-04 09:30:00,67.4,63.1,30.00,NNW,337,0.0,0.0,86,0.00,,CLR,0.00,VWS V14.01,2013-09-04 14:30:00,
2013-09-04 09:35:00,67.8,63.1,30.00,NNW,338,0.0,0.0,85,0.00,,---,0.00,VWS V14.01,2013-09-04 14:35:00,
2013-09-04 09:40:00,68.1,62.8,30.00,NNW,337,0.0,0.0,83,0.00,,CLR,0.00,VWS V14.01,2013-09-04 14:40:00,
2013-09-04 09:45:00,68.6,62.9,30.00,NNW,337,0.0,0.0,82,0.00,,CLR,0.00,VWS V14.01,2013-09-04 14:45:00,
2013-09-04 09:50:00,68.9,62.5,30.00,NNW,337,0.0,0.0,80,0.00,,CLR,0.00,VWS V14.01,2013-09-04 14:50:00,
2013-09-04 09:55:00,69.3,62.9,30.00,NNW,338,0.0,0.0,80,0.00,,---,0.00,VWS V14.01,2013-09-04 14:55:00,
2013-09-04 10:00:00,69.6,62.4,30.00,NNW,337,0.0,0.0,78,0.00,,CLR,0.00,VWS V14.01,2013-09-04 15:00:00,
2013-09-04 10:05:00,69.9,62.7,30.00,NNW,337,0.0,0.0,78,0.00,,CLR,0.00,VWS V14.01,2013-09-04 15:05:00,
2013-09-04 10:10:00,70.3,62.8,30.00,NNW,338,0.0,0.0,77,0.00,,---,0.00,VWS V14.01,2013-09-04 15:10:00,
2013-09-04 10:15:00,70.6,62.7,30.00,NNW,337,0.0,0.0,76,0.00,,CLR,0.00,VWS V14.01,2013-09-04 15:15:00,
2013-09-04 10:20:00,70.9,62.6,30.00,NNW,337,0.0,0.0,75,0.00,,CLR,0.00,VWS V14.01,2013-09-04 15:20:00,
2013-09-04 10:25:00,71.3,63.0,30.00,NNW,337,0.0,0.0,75,0.00,,CLR,0.00,VWS V14.01,2013-09-04 15:25:00,
2013-09-04 10:30:00,71.5,62.8,30.00,NNW,337,0.0,0.0,74,0.00,,CLR,0.00,VWS V14.01,2013-09-04 15:30:00,
2013-09-04 10:35:00,71.8,62.3,30.00,NNW,337,0.0,0.0,72,0.00,,CLR,0.00,VWS V14.01,2013-09-04 15:35:00,
2013-09-04 10:40:00,72.0,62.5,30.00,NNW,337,0.0,0.0,72,0.00,,CLR,0.00,VWS V14.01,2013-09-04 15:40:00,
2013-09-04 10:45:00,72.5,63.0,30.00,NNW,337,0.0,0.0,72,0.00,,CLR,0.00,VWS V14.01,2013-09-04 15:45:00,
2013-09-04 10:50:00,72.8,63.3,30.00,ENE,68,0.0,1.0,72,0.00,,---,0.00,VWS V14.01,2013-09-04 15:50:00,
2013-09-04 10:55:00,73.3,63.3,30.00,NE,42,0.0,0.0,71,0.00,,CLR,0.00,VWS V14.01,2013-09-04 15:55:00,
2013-09-04 11:00:00,73.5,63.1,30.00,NNE,33,0.0,0.0,70,0.00,,CLR,0.00,VWS V14.01,2013-09-04 16:00:00,
2013-09-04 11:05:00,73.9,63.1,30.00,WNW,286,0.0,0.0,69,0.00,,CLR,0.00,VWS V14.01,2013-09-04 16:05:00,
2013-09-04 11:10:00,74.2,63.8,30.00,ENE,68,0.0,0.0,70,0.00,,---,0.00,VWS V14.01,2013-09-04 16:10:00,
2013-09-04 11:15:00,74.6,63.3,30.00,NW,317,0.0,0.0,68,0.00,,CLR,0.00,VWS V14.01,2013-09-04 16:15:00,
2013-09-04 11:20:00,74.7,62.6,30.00,NW,318,0.0,0.0,66,0.00,,CLR,0.00,VWS V14.01,2013-09-04 16:20:00,
2013-09-04 11:25:00,75.1,63.0,30.00,NW,318,0.0,0.0,66,0.00,,CLR,0.00,VWS V14.01,2013-09-04 16:25:00,
2013-09-04 11:30:00,75.6,63.5,30.01,ENE,68,0.0,4.0,66,0.00,,---,0.00,VWS V14.01,2013-09-04 16:30:00,
2013-09-04 11:35:00,75.8,63.2,30.01,NNW,342,0.0,0.0,65,0.00,,CLR,0.00,VWS V14.01,2013-09-04 16:35:00,
2013-09-04 11:40:00,76.1,63.5,30.01,NNW,338,0.0,1.0,65,0.00,,---,0.00,VWS V14.01,2013-09-04 16:40:00,
2013-09-04 11:45:00,76.5,63.4,30.01,NNW,340,0.0,0.0,64,0.00,,CLR,0.00,VWS V14.01,2013-09-04 16:45:00,
2013-09-04 11:50:00,76.7,63.2,30.01,NNW,340,0.0,1.0,63,0.00,,CLR,0.00,VWS V14.01,2013-09-04 16:50:00,
2013-09-04 11:55:00,77.0,63.5,30.01,NNW,338,0.0,6.0,63,0.00,,CLR,0.00,VWS V14.01,2013-09-04 16:55:00,
2013-09-04 12:00:00,77.2,63.6,30.01,ENE,61,0.0,5.0,63,0.00,,CLR,0.00,VWS V14.01,2013-09-04 17:00:00,
2013-09-04 12:05:00,77.6,64.0,30.01,North,0,0.0,1.0,63,0.00,,---,0.00,VWS V14.01,2013-09-04 17:05:00,
2013-09-04 12:10:00,77.7,63.7,30.01,ENE,67,0.0,4.0,62,0.00,,CLR,0.00,VWS V14.01,2013-09-04 17:10:00,
2013-09-04 12:15:00,78.1,64.5,30.00,NNW,329,2.0,5.0,63,0.00,,CLR,0.00,VWS V14.01,2013-09-04 17:15:00,
2013-09-04 12:20:00,78.3,64.2,30.00,NNW,330,0.0,5.0,62,0.00,,CLR,0.00,VWS V14.01,2013-09-04 17:20:00,
2013-09-04 12:25:00,78.6,63.6,30.00,ENE,73,0.0,3.0,60,0.00,,CLR,0.00,VWS V14.01,2013-09-04 17:25:00,
2013-09-04 12:30:00,79.0,63.5,30.01,East,90,1.0,5.0,59,0.00,,---,0.00,VWS V14.01,2013-09-04 17:30:00,
2013-09-04 12:35:00,79.2,64.6,30.01,North,9,0.0,5.0,61,0.00,,CLR,0.00,VWS V14.01,2013-09-04 17:35:00,
2013-09-04 12:40:00,79.4,63.8,30.01,NNW,338,0.0,5.0,59,0.00,,CLR,0.00,VWS V14.01,2013-09-04 17:40:00,
2013-09-04 12:45:00,79.6,64.0,30.00,NNE,22,0.0,4.0,59,0.00,,CLR,0.00,VWS V14.01,2013-09-04 17:45:00,
2013-09-04 12:50:00,79.8,63.7,30.00,ENE,78,0.0,5.0,58,0.00,,CLR,0.00,VWS V14.01,2013-09-04 17:50:00,
2013-09-04 12:55:00,79.8,63.2,30.00,ENE,74,3.0,7.0,57,0.00,,CLR,0.00,VWS V14.01,2013-09-04 17:55:00,
2013-09-04 13:00:00,79.8,63.2,30.01,East,80,3.0,11.0,57,0.00,,CLR,0.00,VWS V14.01,2013-09-04 18:00:00,
2013-09-04 13:05:00,80.1,64.5,30.01,East,86,0.0,6.0,59,0.00,,CLR,0.00,VWS V14.01,2013-09-04 18:05:00,
2013-09-04 13:10:00,80.3,63.7,30.01,North,355,3.0,7.0,57,0.00,,CLR,0.00,VWS V14.01,2013-09-04 18:10:00,
2013-09-04 13:15:00,80.5,63.9,30.01,ENE,68,1.0,7.0,57,0.00,,---,0.00,VWS V14.01,2013-09-04 18:15:00,
2013-09-04 13:20:00,80.7,63.6,30.01,East,83,4.0,9.0,56,0.00,,CLR,0.00,VWS V14.01,2013-09-04 18:20:00,
2013-09-04 13:25:00,80.7,63.0,30.01,ENE,68,4.0,11.0,55,0.00,,---,0.00,VWS V14.01,2013-09-04 18:25:00,
2013-09-04 13:30:00,80.9,63.2,30.01,East,89,1.0,7.0,55,0.00,,CLR,0.00,VWS V14.01,2013-09-04 18:30:00,
2013-09-04 13:35:00,81.1,64.4,30.01,ENE,77,0.0,4.0,57,0.00,,CLR,0.00,VWS V14.01,2013-09-04 18:35:00,
2013-09-04 13:40:00,81.1,63.9,30.01,East,94,2.0,7.0,56,0.00,,CLR,0.00,VWS V14.01,2013-09-04 18:40:00,
2013-09-04 13:45:00,81.2,63.5,30.01,ENE,71,2.0,6.0,55,0.00,,CLR,0.00,VWS V14.01,2013-09-04 18:45:00,
2013-09-04 13:50:00,81.1,64.4,30.01,ENE,77,3.0,5.0,57,0.00,,CLR,0.00,VWS V14.01,2013-09-04 18:50:00,
2013-09-04 13:55:00,81.2,64.0,30.01,ENE,69,0.0,5.0,56,0.00,,CLR,0.00,VWS V14.01,2013-09-04 18:55:00,
2013-09-04 14:00:00,81.4,63.2,30.01,ENE,68,2.0,6.0,54,0.00,,---,0.00,VWS V14.01,2013-09-04 19:00:00,
2013-09-04 14:05:00,81.6,63.9,30.01,NNW,339,0.0,5.0,55,0.00,,CLR,0.00,VWS V14.01,2013-09-04 19:05:00,
2013-09-04 14:10:00,82.0,64.3,30.01,East,86,0.0,1.0,55,0.00,,CLR,0.00,VWS V14.01,2013-09-04 19:10:00,
2013-09-04 14:15:00,81.8,63.0,30.00,ENE,74,2.0,5.0,53,0.00,,CLR,0.00,VWS V14.01,2013-09-04 19:15:00,
2013-09-04 14:20:00,81.8,63.5,30.00,East,93,2.0,5.0,54,0.00,,CLR,0.00,VWS V14.01,2013-09-04 19:20:00,
2013-09-04 14:25:00,81.8,63.5,30.00,East,92,0.0,6.0,54,0.00,,CLR,0.00,VWS V14.01,2013-09-04 19:25:00,
2013-09-04 14:30:00,82.2,63.9,29.99,NE,54,0.0,6.0,54,0.00,,CLR,0.00,VWS V14.01,2013-09-04 19:30:00,
2013-09-04 14:35:00,82.2,63.4,29.99,NE,54,0.0,1.0,53,0.00,,CLR,0.00,VWS V14.01,2013-09-04 19:35:00,
2013-09-04 14:40:00,82.6,63.8,29.99,East,83,2.0,3.0,53,0.00,,CLR,0.00,VWS V14.01,2013-09-04 19:40:00,
2013-09-04 14:45:00,82.6,63.8,29.99,NE,55,1.0,4.0,53,0.00,,CLR,0.00,VWS V14.01,2013-09-04 19:45:00,
2013-09-04 14:50:00,82.6,63.8,29.99,East,82,4.0,7.0,53,0.00,,CLR,0.00,VWS V14.01,2013-09-04 19:50:00,
2013-09-04 14:55:00,82.6,63.2,29.99,East,82,0.0,4.0,52,0.00,,CLR,0.00,VWS V14.01,2013-09-04 19:55:00,
2013-09-04 15:00:00,82.6,63.2,29.99,East,82,0.0,3.0,52,0.00,,CLR,0.00,VWS V14.01,2013-09-04 20:00:00,
2013-09-04 15:05:00,82.8,63.9,29.99,East,81,0.0,4.0,53,0.00,,CLR,0.00,VWS V14.01,2013-09-04 20:05:00,
2013-09-04 15:10:00,83.0,63.6,29.99,East,86,6.0,7.0,52,0.00,,CLR,0.00,VWS V14.01,2013-09-04 20:10:00,
2013-09-04 15:15:00,82.8,63.4,29.98,East,95,0.0,6.0,52,0.00,,CLR,0.00,VWS V14.01,2013-09-04 20:15:00,
2013-09-04 15:20:00,83.0,63.6,29.98,ESE,105,4.0,5.0,52,0.00,,CLR,0.00,VWS V14.01,2013-09-04 20:20:00,
2013-09-04 15:25:00,83.4,64.0,29.98,East,90,1.0,4.0,52,0.00,,---,0.00,VWS V14.01,2013-09-04 20:25:00,
2013-09-04 15:30:00,83.6,62.4,29.98,East,96,0.0,4.0,49,0.00,,CLR,0.00,VWS V14.01,2013-09-04 20:30:00,
2013-09-04 15:35:00,83.4,62.8,29.98,ENE,74,2.0,9.0,50,0.00,,CLR,0.00,VWS V14.01,2013-09-04 20:35:00,
2013-09-04 15:40:00,83.2,63.8,29.98,East,86,0.0,5.0,52,0.00,,CLR,0.00,VWS V14.01,2013-09-04 20:40:00,
2013-09-04 15:45:00,83.0,63.0,29.98,ENE,76,4.0,7.0,51,0.00,,CLR,0.00,VWS V14.01,2013-09-04 20:45:00,
2013-09-04 15:50:00,82.8,62.3,29.98,East,82,0.0,4.0,50,0.00,,CLR,0.00,VWS V14.01,2013-09-04 20:50:00,
2013-09-04 15:55:00,83.2,62.7,29.98,SE,127,1.0,4.0,50,0.00,,CLR,0.00,VWS V14.01,2013-09-04 20:55:00,
2013-09-04 16:00:00,83.6,63.0,29.98,East,96,0.0,4.0,50,0.00,,CLR,0.00,VWS V14.01,2013-09-04 21:00:00,
2013-09-04 16:05:00,83.2,62.7,29.98,ENE,76,0.0,1.0,50,0.00,,CLR,0.00,VWS V14.01,2013-09-04 21:05:00,
2013-09-04 16:10:00,82.8,62.3,29.98,East,79,0.0,5.0,50,0.00,,CLR,0.00,VWS V14.01,2013-09-04 21:10:00,
2013-09-04 16:15:00,83.2,62.1,29.98,East,79,0.0,0.0,49,0.00,,CLR,0.00,VWS V14.01,2013-09-04 21:15:00,
2013-09-04 16:20:00,83.2,62.7,29.98,ENE,72,0.0,6.0,50,0.00,,CLR,0.00,VWS V14.01,2013-09-04 21:20:00,
2013-09-04 16:25:00,83.2,62.7,29.98,ENE,72,0.0,1.0,50,0.00,,CLR,0.00,VWS V14.01,2013-09-04 21:25:00,
2013-09-04 16:30:00,83.0,62.5,29.98,ENE,72,0.0,4.0,50,0.00,,CLR,0.00,VWS V14.01,2013-09-04 21:30:00,
2013-09-04 16:35:00,82.8,62.3,29.98,ENE,68,0.0,4.0,50,0.00,,---,0.00,VWS V14.01,2013-09-04 21:35:00,
2013-09-04 16:40:00,82.6,62.1,29.98,ENE,68,0.0,5.0,50,0.00,,CLR,0.00,VWS V14.01,2013-09-04 21:40:00,
2013-09-04 16:45:00,82.4,62.5,29.98,NNW,348,0.0,5.0,51,0.00,,CLR,0.00,VWS V14.01,2013-09-04 21:45:00,
2013-09-04 16:50:00,82.4,61.9,29.98,NNW,339,0.0,1.0,50,0.00,,CLR,0.00,VWS V14.01,2013-09-04 21:50:00,
2013-09-04 16:55:00,82.2,62.8,29.98,ENE,76,0.0,4.0,52,0.00,,CLR,0.00,VWS V14.01,2013-09-04 21:55:00,
2013-09-04 17:00:00,82.2,62.3,29.98,ENE,76,0.0,2.0,51,0.00,,CLR,0.00,VWS V14.01,2013-09-04 22:00:00,
2013-09-04 17:05:00,82.0,62.7,29.98,NNE,27,0.0,4.0,52,0.00,,CLR,0.00,VWS V14.01,2013-09-04 22:05:00,
2013-09-04 17:10:00,81.8,62.5,29.98,NNE,22,0.0,1.0,52,0.00,,---,0.00,VWS V14.01,2013-09-04 22:10:00,
2013-09-04 17:15:00,81.6,62.3,29.98,East,80,0.0,4.0,52,0.00,,CLR,0.00,VWS V14.01,2013-09-04 22:15:00,
2013-09-04 17:20:00,81.4,62.6,29.98,WNW,303,1.0,3.0,53,0.00,,CLR,0.00,VWS V14.01,2013-09-04 22:20:00,
2013-09-04 17:25:00,81.4,62.1,29.98,ENE,71,0.0,7.0,52,0.00,,CLR,0.00,VWS V14.01,2013-09-04 22:25:00,
2013-09-04 17:30:00,81.2,61.4,29.98,ENE,58,0.0,3.0,51,0.00,,CLR,0.00,VWS V14.01,2013-09-04 22:30:00,
2013-09-04 17:35:00,81.1,61.3,29.98,NE,53,0.0,1.0,51,0.00,,CLR,0.00,VWS V14.01,2013-09-04 22:35:00,
2013-09-04 17:40:00,80.9,61.6,29.98,NE,55,0.0,8.0,52,0.00,,CLR,0.00,VWS V14.01,2013-09-04 22:40:00,
2013-09-04 17:45:00,80.7,61.5,29.98,ENE,75,1.0,3.0,52,0.00,,CLR,0.00,VWS V14.01,2013-09-04 22:45:00,
2013-09-04 17:50:00,80.5,61.8,29.98,ENE,74,0.0,6.0,53,0.00,,CLR,0.00,VWS V14.01,2013-09-04 22:50:00,
2013-09-04 17:55:00,80.1,60.9,29.98,ENE,78,0.0,7.0,52,0.00,,CLR,0.00,VWS V14.01,2013-09-04 22:55:00,
2013-09-04 18:00:00,79.9,60.2,29.99,NNE,22,0.0,3.0,51,0.00,,CLR,0.00,VWS V14.01,2013-09-04 23:00:00,
2013-09-04 18:05:00,79.9,60.7,29.99,NNW,338,0.0,5.0,52,0.00,,---,0.00,VWS V14.01,2013-09-04 23:05:00,
2013-09-04 18:10:00,79.6,62.5,29.99,ENE,68,1.0,7.0,56,0.00,,---,0.00,VWS V14.01,2013-09-04 23:10:00,
2013-09-04 18:30:00,77.6,62.2,30.00,East,80,0.0,1.0,59,0.00,,---,0.00,VWS V14.01,2013-09-04 23:30:00,
2013-09-04 18:35:00,77.4,62.0,30.00,East,82,2.0,5.0,59,0.00,,---,0.00,VWS V14.01,2013-09-04 23:35:00,
2013-09-04 18:40:00,77.0,61.6,30.00,ENE,67,0.0,6.0,59,0.00,,---,0.00,VWS V14.01,2013-09-04 23:40:00,
2013-09-04 18:45:00,76.8,61.9,30.00,ENE,59,0.0,6.0,60,0.00,,---,0.00,VWS V14.01,2013-09-04 23:45:00,
2013-09-04 18:50:00,76.7,61.8,30.00,East,87,0.0,6.0,60,0.00,,---,0.00,VWS V14.01,2013-09-04 23:50:00,
2013-09-04 18:55:00,76.5,61.6,30.00,ENE,78,0.0,9.0,60,0.00,,---,0.00,VWS V14.01,2013-09-04 23:55:00,
2013-09-04 19:00:00,76.1,61.7,30.00,ENE,61,0.0,5.0,61,0.00,,---,0.00,VWS V14.01,2013-09-05 00:00:00,
2013-09-04 19:05:00,76.0,61.6,30.00,ENE,69,0.0,3.0,61,0.00,,---,0.00,VWS V14.01,2013-09-05 00:05:00,
2013-09-04 19:10:00,75.8,61.4,30.00,East,84,0.0,5.0,61,0.00,,---,0.00,VWS V14.01,2013-09-05 00:10:00,
2013-09-04 19:15:00,75.6,61.7,30.00,East,88,0.0,1.0,62,0.00,,---,0.00,VWS V14.01,2013-09-05 00:15:00,
2013-09-04 19:20:00,75.3,61.4,30.00,East,82,0.0,5.0,62,0.00,,---,0.00,VWS V14.01,2013-09-05 00:20:00,
2013-09-04 19:25:00,74.9,61.0,30.00,ENE,75,0.0,5.0,62,0.00,,---,0.00,VWS V14.01,2013-09-05 00:25:00,
2013-09-04 20:41:00,72.1,61.0,30.01,ENE,68,0.0,0.0,68,0.00,,CLR,0.00,VWS V14.01,2013-09-05 01:41:00,
2013-09-04 20:50:00,71.8,60.7,30.02,ENE,67,0.0,1.0,68,0.00,,CLR,0.00,VWS V14.01,2013-09-05 01:50:00,
2013-09-04 20:55:00,71.6,60.5,30.02,ENE,67,0.0,2.0,68,0.00,,CLR,0.00,VWS V14.01,2013-09-05 01:55:00,
2013-09-04 21:00:00,71.5,60.0,30.02,ENE,69,0.0,4.0,67,0.00,,CLR,0.00,VWS V14.01,2013-09-05 02:00:00,
2013-09-04 21:10:00,71.3,59.4,30.02,East,83,0.0,4.0,66,0.00,,CLR,0.00,VWS V14.01,2013-09-05 02:10:00,
2013-09-04 21:15:00,71.3,59.4,30.02,ENE,78,0.0,0.0,66,0.00,,CLR,0.00,VWS V14.01,2013-09-05 02:15:00,
2013-09-04 21:25:00,70.9,59.0,30.02,ESE,123,0.0,6.0,66,0.00,,CLR,0.00,VWS V14.01,2013-09-05 02:25:00,
2013-09-04 21:30:00,70.8,58.5,30.03,ENE,68,0.0,5.0,65,0.00,,CLR,0.00,VWS V14.01,2013-09-05 02:30:00,
2013-09-04 21:35:00,70.6,58.3,30.03,East,80,0.0,1.0,65,0.00,,CLR,0.00,VWS V14.01,2013-09-05 02:35:00,
2013-09-04 21:40:00,70.4,58.1,30.03,East,86,4.0,4.0,65,0.00,,CLR,0.00,VWS V14.01,2013-09-05 02:40:00,
2013-09-04 21:45:00,70.3,58.0,30.04,ENE,74,0.0,5.0,65,0.00,,CLR,0.00,VWS V14.01,2013-09-05 02:45:00,
2013-09-04 21:50:00,69.9,57.6,30.04,ENE,63,0.0,5.0,65,0.00,,CLR,0.00,VWS V14.01,2013-09-05 02:50:00,
2013-09-04 21:55:00,69.9,58.0,30.04,ENE,69,0.0,4.0,66,0.00,,CLR,0.00,VWS V14.01,2013-09-05 02:55:00,
2013-09-04 22:00:00,69.8,57.5,30.04,ENE,73,0.0,4.0,65,0.00,,CLR,0.00,VWS V14.01,2013-09-05 03:00:00,
2013-09-04 22:05:00,69.6,57.8,30.04,ENE,77,0.0,4.0,66,0.00,,CLR,0.00,VWS V14.01,2013-09-05 03:05:00,
2013-09-04 22:10:00,69.6,57.3,30.04,East,93,5.0,5.0,65,0.00,,CLR,0.00,VWS V14.01,2013-09-05 03:10:00,
2013-09-04 22:15:00,69.4,57.6,30.04,East,88,0.0,6.0,66,0.00,,CLR,0.00,VWS V14.01,2013-09-05 03:15:00,
2013-09-04 22:25:00,69.1,57.3,30.04,East,80,0.0,2.0,66,0.00,,CLR,0.00,VWS V14.01,2013-09-05 03:25:00,
2013-09-04 22:30:00,68.9,57.1,30.04,East,79,0.0,1.0,66,0.00,,CLR,0.00,VWS V14.01,2013-09-05 03:30:00,
2013-09-04 22:35:00,68.9,57.5,30.04,ENE,76,0.0,0.0,67,0.00,,CLR,0.00,VWS V14.01,2013-09-05 03:35:00,
2013-09-04 22:40:00,68.8,57.4,30.04,ENE,76,0.0,0.0,67,0.00,,CLR,0.00,VWS V14.01,2013-09-05 03:40:00,
2013-09-04 22:50:00,68.6,57.2,30.04,ENE,75,0.0,2.0,67,0.00,,CLR,0.00,VWS V14.01,2013-09-05 03:50:00,
2013-09-04 22:55:00,68.6,57.2,30.04,ENE,77,0.0,3.0,67,0.00,,CLR,0.00,VWS V14.01,2013-09-05 03:55:00,
2013-09-04 23:00:00,68.6,57.2,30.05,ENE,77,0.0,0.0,67,0.00,,CLR,0.00,VWS V14.01,2013-09-05 04:00:00,
2013-09-04 23:05:00,68.4,57.4,30.05,ENE,72,0.0,2.0,68,0.00,,CLR,0.00,VWS V14.01,2013-09-05 04:05:00,
2013-09-04 23:10:00,68.4,57.4,30.05,ENE,72,0.0,0.0,68,0.00,,CLR,0.00,VWS V14.01,2013-09-05 04:10:00,
2013-09-04 23:20:00,68.3,56.9,30.05,ENE,69,0.0,6.0,67,0.00,,CLR,0.00,VWS V14.01,2013-09-05 04:20:00,
2013-09-04 23:25:00,68.3,56.9,30.05,ENE,61,0.0,1.0,67,0.00,,CLR,0.00,VWS V14.01,2013-09-05 04:25:00,
2013-09-04 23:30:00,68.3,56.9,30.05,East,85,0.0,0.0,67,0.00,,CLR,0.00,VWS V14.01,2013-09-05 04:30:00,
2013-09-04 23:35:00,68.3,56.9,30.05,East,80,0.0,1.0,67,0.00,,CLR,0.00,VWS V14.01,2013-09-05 04:35:00,
2013-09-04 23:45:00,67.9,56.1,30.05,East,80,0.0,1.0,66,0.00,,CLR,0.00,VWS V14.01,2013-09-05 04:45:00,
2013-09-04 23:50:00,67.8,56.5,30.05,East,86,0.0,0.0,67,0.00,,CLR,0.00,VWS V14.01,2013-09-05 04:50:00,